WASHINGTON/NATIONAL current weather conditions

sailwx.info

Wind from 290 at 5 knots

Air temperature 6.0° C
Visibility: greater than 8.7 NM
Dewpoint -5.0° C

Last reported at 2019-Dec-06 00:10 UTC.
Time now 2019-Dec-06 00:40 UTC

Location: N 38°51' W 077°02'.
View on Google Maps.

See reports from other nearby stations

  
Tides and Currents Weather Stations Pressure Air Temp Water Temp Dewpoint Dewpoint Depression Visibility Wind Speed Wind Dir Waves Ship Positions
date/time (UTC)wind fromknots sea level pressurealtimeterstation pressurevisibilityair tempwater tempwave heightnotes
2019-Dec-06 00:10 290 5 8.7 6.0
2019-Dec-06 00:05 280 5 8.7 7.0
2019-Dec-06 00:00 280 6 8.7 7.0
2019-Dec-05 23:55 290 6 8.7 7.0
2019-Dec-05 23:52 280 6 8.7 6.7
2019-Dec-05 23:50 290 6 8.7 7.0
2019-Dec-05 23:45 290 6 8.7 7.0
2019-Dec-05 23:40 290 7 8.7 7.0
2019-Dec-05 23:35 300 7 8.7 7.0
2019-Dec-05 23:30 290 8 8.7 7.0
2019-Dec-05 23:25 300 9 8.7 7.0
2019-Dec-05 23:20 300 10 8.7 7.0
2019-Dec-05 23:15 300 8 8.7 7.0
2019-Dec-05 23:10 300 8 8.7 7.0
2019-Dec-05 23:05 300 9 8.7 7.0
2019-Dec-05 23:00 300 7 8.7 7.0
2019-Dec-05 22:55 300 8 8.7 7.0
2019-Dec-05 22:52 320 6 8.7 6.7
2019-Dec-05 22:50 310 7 8.7 7.0
2019-Dec-05 22:45 280 8 8.7 7.0
2019-Dec-05 22:40 290 7 8.7 7.0
2019-Dec-05 22:35 290 6 8.7 7.0
2019-Dec-05 22:30 300 7 8.7 7.0
2019-Dec-05 22:25 320 5 8.7 7.0
2019-Dec-05 22:20 300 7 8.7 7.0
2019-Dec-05 22:15 310 5 8.7 8.0
2019-Dec-05 22:10 270 9 8.7 8.0
2019-Dec-05 22:05 290 9 8.7 7.0
2019-Dec-05 22:00 290 6 8.7 8.0
2019-Dec-05 21:55 300 4 8.7 8.0
2019-Dec-05 21:52 280 7 gusting 14 8.7 7.8
2019-Dec-05 21:50 270 7 8.7 8.0
2019-Dec-05 21:45 310 9 8.7 8.0
2019-Dec-05 21:40 300 10 8.7 8.0
2019-Dec-05 21:35 290 13 8.7 8.0
2019-Dec-05 21:30 290 14 gusting 20 8.7 8.0
2019-Dec-05 21:25 310 8 8.7 8.0
2019-Dec-05 21:20 280 8 8.7 8.0
2019-Dec-05 21:15 280 12 8.7 8.0
2019-Dec-05 21:10 280 15 8.7 8.0
2019-Dec-05 21:05 280 12 gusting 17 8.7 8.0
2019-Dec-05 21:00 280 9 8.7 8.0
2019-Dec-05 20:55 270 13 8.7 8.0
2019-Dec-05 20:52 290 13 gusting 15 8.7 8.3
2019-Dec-05 20:50 300 11 8.7 8.0
2019-Dec-05 20:45 300 12 8.7 9.0
2019-Dec-05 20:40 290 10 8.7 9.0
2019-Dec-05 20:35 300 12 8.7 9.0
2019-Dec-05 20:30 290 9 8.7 9.0
2019-Dec-05 20:25 280 8 8.7 9.0
2019-Dec-05 20:20 290 13 gusting 18 8.7 9.0
2019-Dec-05 20:15 300 14 8.7 9.0
2019-Dec-05 20:10 280 14 8.7 9.0
2019-Dec-05 20:05 290 12 8.7 9.0
2019-Dec-05 20:00 290 14 8.7 9.0
2019-Dec-05 19:55 300 14 gusting 20 8.7 9.0
2019-Dec-05 19:52 320 12 gusting 21 8.7 8.9
2019-Dec-05 19:50 300 14 8.7 9.0
2019-Dec-05 19:45 310 17 8.7 9.0
2019-Dec-05 19:40 300 15 8.7 9.0
2019-Dec-05 19:35 320 15 8.7 9.0
2019-Dec-05 19:30 310 13 gusting 19 8.7 9.0
2019-Dec-05 19:25 300 18 8.7 9.0
2019-Dec-05 19:20 290 11 gusting 16 8.7 9.0
2019-Dec-05 19:15 270 14 8.7 9.0
2019-Dec-05 19:10 290 16 8.7 9.0
2019-Dec-05 19:05 290 10 8.7 9.0
2019-Dec-05 19:00 270 11 gusting 18 8.7 9.0
2019-Dec-05 18:55 290 11 8.7 9.0
2019-Dec-05 18:52 280 12 gusting 18 8.7 8.9
2019-Dec-05 18:50 280 10 8.7 9.0
2019-Dec-05 18:45 310 13 8.7 9.0
2019-Dec-05 18:40 270 10 gusting 15 8.7 9.0
2019-Dec-05 18:35 300 9 gusting 14 8.7 9.0
2019-Dec-05 18:30 290 9 8.7 9.0
2019-Dec-05 18:25 320 13 8.7 9.0
2019-Dec-05 18:20 320 12 gusting 17 8.7 9.0
2019-Dec-05 18:15 300 10 8.7 8.0
2019-Dec-05 18:10 290 11 gusting 16 8.7 9.0
2019-Dec-05 18:05 310 15 8.7 9.0
2019-Dec-05 18:00 270 14 8.7 8.0
2019-Dec-05 17:55 280 12 gusting 20 8.7 8.0
2019-Dec-05 17:52 290 14 gusting 25 8.7 8.3
2019-Dec-05 17:50 310 18 gusting 24 8.7 9.0
2019-Dec-05 17:45 310 14 8.7 9.0
2019-Dec-05 17:40 300 9 8.7 8.0
2019-Dec-05 17:35 320 15 gusting 23 8.7 9.0
2019-Dec-05 17:30 290 14 8.7 8.0
2019-Dec-05 17:25 290 12 8.7 8.0
2019-Dec-05 17:20 290 14 8.7 8.0
2019-Dec-05 17:15 290 15 8.7 8.0
2019-Dec-05 17:10 290 17 8.7 8.0
2019-Dec-05 17:05 280 17 gusting 25 8.7 8.0
2019-Dec-05 17:00 290 14 gusting 20 8.7 8.0
2019-Dec-05 16:55 280 14 gusting 22 8.7 8.0
2019-Dec-05 16:52 280 14 gusting 22 8.7 8.9
2019-Dec-05 16:50 300 14 8.7 9.0
2019-Dec-05 16:45 310 14 gusting 20 8.7 9.0
2019-Dec-05 16:40 300 14 8.7 8.0
2019-Dec-05 16:35 300 14 8.7 8.0
2019-Dec-05 16:30 280 19 gusting 25 8.7 8.0
2019-Dec-05 16:25 290 17 8.7 8.0
2019-Dec-05 16:20 300 12 8.7 8.0
2019-Dec-05 16:15 320 16 gusting 22 8.7 8.0
2019-Dec-05 16:10 310 18 8.7 8.0
2019-Dec-05 16:05 300 14 8.7 8.0
2019-Dec-05 16:00 300 16 8.7 8.0
2019-Dec-05 15:55 300 14 gusting 19 8.7 8.0
2019-Dec-05 15:52 290 17 gusting 24 8.7 7.8
2019-Dec-05 15:50 300 14 gusting 19 8.7 8.0
2019-Dec-05 15:45 300 13 8.7 8.0
2019-Dec-05 15:40 290 13 gusting 18 8.7 8.0
2019-Dec-05 15:35 290 11 8.7 7.0
2019-Dec-05 15:30 290 15 gusting 20 8.7 7.0
2019-Dec-05 15:25 290 10 gusting 16 8.7 7.0
2019-Dec-05 15:20 320 14 8.7 7.0
2019-Dec-05 15:15 300 9 8.7 7.0
2019-Dec-05 15:10 300 14 8.7 7.0
2019-Dec-05 15:05 310 12 gusting 17 8.7 7.0
2019-Dec-05 15:00 290 12 8.7 7.0
2019-Dec-05 14:55 280 15 8.7 6.0
2019-Dec-05 14:52 290 11 gusting 20 8.7 6.1
2019-Dec-05 14:50 310 15 8.7 6.0
2019-Dec-05 14:45 280 14 8.7 6.0
2019-Dec-05 14:40 280 15 8.7 7.0
2019-Dec-05 14:35 290 11 8.7 7.0
2019-Dec-05 14:30 280 13 gusting 18 8.7 7.0
2019-Dec-05 14:25 310 12 8.7 7.0
2019-Dec-05 14:20 300 9 8.7 7.0
2019-Dec-05 14:15 280 14 gusting 22 8.7 7.0
2019-Dec-05 14:10 310 13 8.7 7.0
2019-Dec-05 14:05 300 9 8.7 7.0
2019-Dec-05 14:00 290 13 8.7 6.0
2019-Dec-05 13:55 300 14 8.7 6.0
2019-Dec-05 13:52 300 13 gusting 20 8.7 6.1
2019-Dec-05 13:50 310 14 8.7 6.0
2019-Dec-05 13:45 290 14 gusting 20 8.7 6.0
2019-Dec-05 13:40 290 11 8.7 6.0
2019-Dec-05 13:35 290 14 8.7 5.0
2019-Dec-05 13:30 290 9 8.7 5.0
2019-Dec-05 13:25 290 13 8.7 5.0
2019-Dec-05 13:20 290 10 8.7 5.0
2019-Dec-05 13:15 310 12 8.7 5.0
2019-Dec-05 13:10 300 10 8.7 5.0
2019-Dec-05 13:05 320 12 8.7 5.0
2019-Dec-05 13:00 320 11 gusting 16 8.7 4.0
2019-Dec-05 12:55 310 10 8.7 4.0
2019-Dec-05 12:52 320 5 gusting 14 8.7 4.4
2019-Dec-05 12:50 300 7 8.7 5.0
2019-Dec-05 12:45 310 7 8.7 4.0
2019-Dec-05 12:40 300 5 8.7 4.0
2019-Dec-05 12:35 290 4 8.7 4.0
2019-Dec-05 12:30 280 8 8.7 4.0
2019-Dec-05 12:25 300 8 8.7 4.0
2019-Dec-05 12:20 290 9 8.7 4.0
2019-Dec-05 12:15 290 7 8.7 4.0
2019-Dec-05 12:10 290 10 gusting 16 8.7 4.0
2019-Dec-05 12:05 280 8 8.7 4.0
2019-Dec-05 12:00 280 6 8.7 4.0
2019-Dec-05 11:55 290 10 8.7 4.0
2019-Dec-05 11:52 270 7 8.7 4.4
2019-Dec-05 11:50 280 7 8.7 4.0
2019-Dec-05 11:45 290 8 8.7 4.0
2019-Dec-05 11:40 300 6 8.7 4.0
2019-Dec-05 11:35 290 7 8.7 4.0
2019-Dec-05 11:30 280 5 8.7 4.0
2019-Dec-05 11:25 280 6 8.7 4.0
2019-Dec-05 11:20 290 9 8.7 4.0
2019-Dec-05 11:15 290 7 8.7 4.0
2019-Dec-05 11:10 290 10 8.7 5.0
2019-Dec-05 11:05 280 10 8.7 4.0
2019-Dec-05 11:00 280 10 8.7 4.0
2019-Dec-05 10:55 280 8 8.7 4.0
2019-Dec-05 10:52 270 7 8.7 4.4
2019-Dec-05 10:50 290 6 8.7 4.0
2019-Dec-05 10:45 280 7 8.7 4.0
2019-Dec-05 10:40 280 4 8.7 4.0
2019-Dec-05 10:35 310 7 8.7 5.0
2019-Dec-05 10:30 310 9 8.7 5.0
2019-Dec-05 10:25 280 5 8.7 5.0
2019-Dec-05 10:20 320 10 8.7 5.0
2019-Dec-05 10:15 300 10 8.7 5.0
2019-Dec-05 10:10 290 12 gusting 17 8.7 5.0
2019-Dec-05 10:05 290 14 8.7 5.0
2019-Dec-05 10:00 300 12 8.7 5.0
2019-Dec-05 09:55 290 11 8.7 5.0
2019-Dec-05 09:52 300 9 8.7 4.4
2019-Dec-05 09:50 290 10 8.7 4.0
2019-Dec-05 09:45 290 10 8.7 5.0
2019-Dec-05 09:40 290 11 8.7 5.0
2019-Dec-05 09:35 290 7 8.7 5.0
2019-Dec-05 09:30 300 12 8.7 5.0
2019-Dec-05 09:25 300 9 8.7 5.0
2019-Dec-05 09:20 300 9 8.7 5.0
2019-Dec-05 09:15 290 11 8.7 5.0
2019-Dec-05 09:10 290 10 8.7 5.0
2019-Dec-05 09:05 300 10 8.7 5.0
2019-Dec-05 09:00 300 11 8.7 5.0
2019-Dec-05 08:55 290 11 8.7 5.0
2019-Dec-05 08:52 290 11 gusting 19 8.7 5.0
2019-Dec-05 08:50 280 10 8.7 5.0
2019-Dec-05 08:45 280 11 8.7 5.0
2019-Dec-05 08:40 280 13 8.7 5.0
2019-Dec-05 08:35 290 15 8.7 5.0
2019-Dec-05 08:30 290 16 8.7 5.0
2019-Dec-05 08:25 280 10 8.7 5.0
2019-Dec-05 08:20 290 10 8.7 5.0
2019-Dec-05 08:15 290 13 8.7 5.0
2019-Dec-05 08:10 280 11 gusting 18 8.7 5.0
2019-Dec-05 08:05 280 12 8.7 5.0
2019-Dec-05 08:00 280 10 8.7 5.0
2019-Dec-05 07:55 280 12 8.7 5.0
2019-Dec-05 07:52 280 13 gusting 20 8.7 5.0
2019-Dec-05 07:50 290 15 gusting 20 8.7 5.0
2019-Dec-05 07:45 290 13 8.7 5.0
2019-Dec-05 07:40 300 13 8.7 5.0
2019-Dec-05 07:35 300 11 8.7 5.0
2019-Dec-05 07:30 300 11 8.7 6.0
2019-Dec-05 07:25 290 11 8.7 6.0
2019-Dec-05 07:20 280 11 gusting 17 8.7 6.0
2019-Dec-05 07:15 270 11 8.7 6.0
2019-Dec-05 07:10 260 14 8.7 6.0
2019-Dec-05 07:05 270 11 8.7 6.0
2019-Dec-05 07:00 260 13 8.7 6.0
2019-Dec-05 06:55 270 12 8.7 6.0
2019-Dec-05 06:52 270 11 8.7 5.6
2019-Dec-05 06:50 270 10 8.7 6.0
2019-Dec-05 06:45 270 12 8.7 6.0
2019-Dec-05 06:40 260 9 8.7 6.0
2019-Dec-05 06:35 270 7 8.7 6.0
2019-Dec-05 06:30 250 5 8.7 6.0
2019-Dec-05 06:25 270 6 8.7 6.0
2019-Dec-05 06:20 260 7 8.7 6.0
2019-Dec-05 06:15 270 6 8.7 6.0
2019-Dec-05 06:10 270 6 8.7 6.0
2019-Dec-05 06:05 250 5 8.7 6.0
2019-Dec-05 06:00 240 6 8.7 6.0
2019-Dec-05 05:55 240 5 8.7 5.0
2019-Dec-05 05:52 240 6 8.7 5.0
2019-Dec-05 05:50 220 5 8.7 6.0
2019-Dec-05 05:45 240 7 8.7 6.0
2019-Dec-05 05:40 250 8 8.7 6.0
2019-Dec-05 05:35 250 8 8.7 6.0
2019-Dec-05 05:30 240 8 8.7 6.0
2019-Dec-05 05:25 250 9 8.7 6.0
2019-Dec-05 05:20 240 8 8.7 6.0
2019-Dec-05 05:15 260 6 8.7 7.0
2019-Dec-05 05:10 270 10 8.7 7.0
2019-Dec-05 05:05 270 8 8.7 7.0
2019-Dec-05 05:00 280 7 8.7 7.0
2019-Dec-05 04:55 280 9 8.7 7.0
2019-Dec-05 04:52 280 7 8.7 6.7
2019-Dec-05 04:50 290 8 8.7 7.0
2019-Dec-05 04:45 300 10 8.7 7.0 Light rain.
2019-Dec-05 04:40 300 11 8.7 7.0 Light rain.
2019-Dec-05 04:35 300 12 8.7 7.0 Light rain.
2019-Dec-05 04:30 310 9 gusting 14 8.7 7.0 Light rain.
2019-Dec-05 04:25 300 9 8.7 7.0 Light rain.
2019-Dec-05 04:20 310 8 8.7 7.0 Light rain.
2019-Dec-05 04:15 300 10 8.7 7.0 Light rain.
2019-Dec-05 04:10 290 8 8.7 7.0 Light rain.
2019-Dec-05 04:05 300 13 8.7 7.0 Light rain.
2019-Dec-05 04:00 290 6 8.7 7.0 Light rain.
2019-Dec-05 03:55 260 5 8.7 7.0 Light rain.
2019-Dec-05 03:52 280 4 8.7 6.7 Light rain.
2019-Dec-05 03:50 270 5 8.7 7.0 Light rain.
2019-Dec-05 03:45 270 4 8.7 7.0
2019-Dec-05 03:40 270 3 8.7 7.0
2019-Dec-05 03:35 280 4 8.7 7.0
2019-Dec-05 03:30 8.7 7.0
2019-Dec-05 03:25 8.7 6.0
2019-Dec-05 03:20 210 4 8.7 6.0
2019-Dec-05 03:15 240 4 8.7 7.0
2019-Dec-05 03:10 260 3 8.7 6.0
2019-Dec-05 03:05 250 3 8.7 6.0
2019-Dec-05 03:00 240 4 8.7 7.0
2019-Dec-05 02:55 250 4 8.7 7.0
2019-Dec-05 02:52 240 4 8.7 6.7
2019-Dec-05 02:50 240 4 8.7 6.0
2019-Dec-05 02:45 220 5 8.7 6.0
2019-Dec-05 02:40 220 5 8.7 6.0
2019-Dec-05 02:35 220 5 8.7 7.0
2019-Dec-05 02:30 220 5 8.7 7.0
2019-Dec-05 02:25 230 6 8.7 7.0
2019-Dec-05 02:20 200 6 8.7 7.0
2019-Dec-05 02:15 220 3 8.7 7.0
2019-Dec-05 02:10 170 4 8.7 7.0
2019-Dec-05 02:05 8.7 7.0
2019-Dec-05 02:00 250 3 8.7 7.0
2019-Dec-05 01:55 280 5 8.7 7.0
2019-Dec-05 01:52 8.7 7.2
2019-Dec-05 01:50 290 5 8.7 7.0
2019-Dec-05 01:45 300 5 8.7 7.0
2019-Dec-05 01:40 8.7 7.0
2019-Dec-05 01:35 300 5 8.7 7.0
2019-Dec-05 01:30 320 4 8.7 7.0
2019-Dec-05 01:25 320 4 8.7 7.0
2019-Dec-05 01:20 320 7 8.7 7.0
2019-Dec-05 01:15 330 9 8.7 7.0
2019-Dec-05 01:10 300 4 8.7 7.0
2019-Dec-05 01:05 330 5 8.7 8.0
2019-Dec-05 01:00 310 7 8.7 7.0
2019-Dec-05 00:55 290 6 8.7 8.0
2019-Dec-05 00:52 280 2 8.7 7.8
2019-Dec-05 00:50 290 5 8.7 7.0
2019-Dec-05 00:45 290 3 8.7 8.0
2019-Dec-05 00:40 280 5 8.7 8.0
2019-Dec-05 00:35 280 4 8.7 7.0
2019-Dec-05 00:30 280 4 8.7 7.0
2019-Dec-05 00:25 280 5 8.7 8.0
2019-Dec-05 00:20 290 6 8.7 8.0
2019-Dec-05 00:15 280 7 8.7 8.0
2019-Dec-05 00:10 280 7 8.7 8.0
2019-Dec-05 00:05 290 7 8.7 8.0
2019-Dec-05 00:00 280 6 8.7 8.0
2019-Dec-04 23:55 290 10 8.7 8.0
2019-Dec-04 23:52 300 6 8.7 8.3
2019-Dec-04 23:50 290 6 8.7 8.0
2019-Dec-04 23:45 280 9 8.7 8.0
2019-Dec-04 23:40 270 5 8.7 8.0
2019-Dec-04 23:35 300 9 8.7 8.0
2019-Dec-04 23:30 300 10 8.7 9.0
2019-Dec-04 23:25 290 6 8.7 8.0
2019-Dec-04 23:20 290 8 8.7 9.0
2019-Dec-04 23:15 290 7 8.7 9.0
2019-Dec-04 23:10 280 10 8.7 8.0
2019-Dec-04 23:05 290 10 8.7 8.0
2019-Dec-04 23:00 290 7 8.7 9.0
2019-Dec-04 22:55 280 9 8.7 9.0
2019-Dec-04 22:52 290 6 8.7 8.3
2019-Dec-04 22:50 290 6 8.7 9.0
2019-Dec-04 22:45 290 7 8.7 9.0
2019-Dec-04 22:40 290 6 8.7 9.0
2019-Dec-04 22:35 300 5 8.7 8.0
2019-Dec-04 22:30 290 5 8.7 9.0
2019-Dec-04 22:25 290 5 8.7 9.0
2019-Dec-04 22:20 260 5 8.7 8.0
2019-Dec-04 22:15 270 3 8.7 9.0
2019-Dec-04 22:10 300 5 8.7 8.0
2019-Dec-04 22:05 340 7 8.7 8.0
2019-Dec-04 22:00 320 4 8.7 8.0
2019-Dec-04 21:55 340 7 8.7 8.0 Light rain.
2019-Dec-04 21:52 330 12 8.7 8.3 Light rain.
2019-Dec-04 21:50 330 11 8.7 8.0 Light rain.
2019-Dec-04 21:45 330 6 8.7 8.0
2019-Dec-04 21:40 8.7 9.0
2019-Dec-04 21:35 330 3 8.7 9.0 Light rain.
2019-Dec-04 21:30 310 3 8.7 8.0
2019-Dec-04 21:25 280 4 8.7 8.0
2019-Dec-04 21:20 280 5 8.7 8.0 Light rain.
2019-Dec-04 21:15 260 6 8.7 8.0 Light rain.
2019-Dec-04 21:10 280 13 7.0 8.0 Light rain.
2019-Dec-04 21:05 280 14 6.1 8.0 Rain.
2019-Dec-04 21:00 220 9 8.7 9.0 Light rain.
2019-Dec-04 20:55 190 6 8.7 9.0
2019-Dec-04 20:52 200 5 8.7 9.4
2019-Dec-04 20:50 210 8 8.7 9.0 Light rain.
2019-Dec-04 20:45 190 8 8.7 9.0 Light rain.
2019-Dec-04 20:40 200 7 8.7 9.0 Light rain.
2019-Dec-04 20:39 210 7 8.7 8.9 Light rain.
2019-Dec-04 20:35 200 7 8.7 9.0 Light rain.
2019-Dec-04 20:30 190 7 8.7 9.0
2019-Dec-04 20:25 190 8 8.7 9.0
2019-Dec-04 20:20 180 8 8.7 9.0
2019-Dec-04 20:15 170 8 8.7 8.0
2019-Dec-04 20:10 170 10 8.7 8.0
2019-Dec-04 20:05 170 9 8.7 9.0
2019-Dec-04 20:00 170 10 8.7 9.0
2019-Dec-04 19:55 170 10 8.7 9.0
2019-Dec-04 19:52 170 9 8.7 8.9
2019-Dec-04 19:50 170 11 8.7 9.0
2019-Dec-04 19:45 170 10 8.7 9.0
2019-Dec-04 19:40 160 10 8.7 9.0
2019-Dec-04 19:35 160 11 8.7 9.0
2019-Dec-04 19:30 170 9 8.7 9.0
2019-Dec-04 19:25 170 9 8.7 9.0
2019-Dec-04 19:20 190 6 8.7 9.0
2019-Dec-04 19:15 180 7 8.7 9.0
2019-Dec-04 19:10 180 7 8.7 9.0
2019-Dec-04 19:05 170 7 8.7 9.0
2019-Dec-04 19:00 200 7 8.7 9.0
2019-Dec-04 18:55 210 7 8.7 9.0
2019-Dec-04 18:52 190 7 8.7 8.9
2019-Dec-04 18:50 190 8 8.7 9.0
2019-Dec-04 18:45 210 7 8.7 9.0
2019-Dec-04 18:40 220 8 8.7 9.0
2019-Dec-04 18:35 210 9 8.7 9.0
2019-Dec-04 18:30 220 11 8.7 9.0
2019-Dec-04 18:25 210 9 8.7 8.0
2019-Dec-04 18:20 200 10 8.7 8.0
2019-Dec-04 18:15 230 9 8.7 9.0
2019-Dec-04 18:10 240 9 8.7 9.0
2019-Dec-04 18:05 220 10 8.7 9.0
2019-Dec-04 18:00 200 9 8.7 8.0
2019-Dec-04 17:55 210 10 8.7 8.0
2019-Dec-04 17:52 220 8 8.7 7.8
2019-Dec-04 17:50 210 8 8.7 8.0
2019-Dec-04 17:45 220 8 8.7 8.0
2019-Dec-04 17:40 200 8 8.7 8.0
2019-Dec-04 17:35 210 9 8.7 8.0
2019-Dec-04 17:30 210 10 8.7 7.0
2019-Dec-04 17:25 200 10 8.7 7.0
2019-Dec-04 17:20 210 7 8.7 7.0
2019-Dec-04 17:15 200 9 8.7 7.0
2019-Dec-04 17:10 210 9 8.7 7.0
2019-Dec-04 17:05 210 10 8.7 7.0
2019-Dec-04 17:00 220 10 8.7 7.0
2019-Dec-04 16:55 210 10 8.7 7.0
2019-Dec-04 16:52 220 11 8.7 7.2
2019-Dec-04 16:50 210 10 8.7 7.0
2019-Dec-04 16:45 210 8 8.7 7.0
2019-Dec-04 16:40 200 8 8.7 7.0
2019-Dec-04 16:35 220 8 8.7 7.0
2019-Dec-04 16:30 230 10 8.7 7.0
2019-Dec-04 16:25 220 11 8.7 7.0
2019-Dec-04 16:20 210 10 8.7 7.0
2019-Dec-04 16:15 210 8 8.7 7.0
2019-Dec-04 16:10 210 6 8.7 6.0
2019-Dec-04 16:05 190 6 8.7 6.0
2019-Dec-04 16:00 200 7 8.7 6.0
2019-Dec-04 15:55 210 6 8.7 6.0
2019-Dec-04 15:52 210 6 8.7 5.6
2019-Dec-04 15:50 200 5 8.7 6.0
2019-Dec-04 15:45 200 6 8.7 6.0
2019-Dec-04 15:40 210 7 8.7 5.0
2019-Dec-04 15:35 210 9 8.7 5.0
2019-Dec-04 15:30 210 9 8.7 5.0
2019-Dec-04 15:25 220 8 8.7 5.0
2019-Dec-04 15:20 190 8 8.7 5.0
2019-Dec-04 15:15 200 8 8.7 4.0
2019-Dec-04 15:10 210 7 8.7 4.0
2019-Dec-04 15:05 210 8 8.7 4.0
2019-Dec-04 15:00 210 8 8.7 4.0
2019-Dec-04 14:55 210 8 8.7 4.0
2019-Dec-04 14:52 230 6 8.7 4.4
2019-Dec-04 14:50 220 8 8.7 4.0
2019-Dec-04 14:45 220 9 8.7 4.0
2019-Dec-04 14:40 220 9 8.7 4.0
2019-Dec-04 14:35 210 7 8.7 4.0
2019-Dec-04 14:30 210 8 8.7 4.0
2019-Dec-04 14:25 210 9 8.7 4.0
2019-Dec-04 14:20 220 8 8.7 4.0
2019-Dec-04 14:15 220 10 8.7 4.0
2019-Dec-04 14:10 210 8 8.7 4.0
2019-Dec-04 14:05 220 8 8.7 4.0
2019-Dec-04 14:00 220 7 8.7 4.0
2019-Dec-04 13:55 210 6 8.7 4.0
2019-Dec-04 13:52 220 6 8.7 3.9
2019-Dec-04 13:50 220 9 8.7 4.0
2019-Dec-04 13:45 220 8 8.7 4.0
2019-Dec-04 13:40 220 7 8.7 4.0
2019-Dec-04 13:35 200 7 8.7 4.0
2019-Dec-04 13:30 200 6 8.7 3.0
2019-Dec-04 13:25 210 6 8.7 3.0
2019-Dec-04 13:20 230 6 8.7 3.0
2019-Dec-04 13:15 220 7 8.7 3.0
2019-Dec-04 13:10 220 6 8.7 3.0
2019-Dec-04 13:05 230 6 8.7 3.0
2019-Dec-04 13:00 220 6 8.7 3.0
2019-Dec-04 12:55 210 7 8.7 3.0
2019-Dec-04 12:52 210 6 8.7 3.3
2019-Dec-04 12:50 200 6 8.7 3.0
2019-Dec-04 12:45 210 5 8.7 3.0
2019-Dec-04 12:40 210 6 8.7 3.0
2019-Dec-04 12:35 210 6 8.7 3.0
2019-Dec-04 12:30 210 7 8.7 3.0
2019-Dec-04 12:25 210 8 8.7 3.0
2019-Dec-04 12:20 210 7 8.7 3.0
2019-Dec-04 12:15 210 6 8.7 3.0
2019-Dec-04 12:10 210 6 8.7 3.0
2019-Dec-04 12:05 220 7 8.7 3.0
2019-Dec-04 12:00 220 5 8.7 2.0
2019-Dec-04 11:55 220 6 8.7 3.0
2019-Dec-04 11:52 220 6 8.7 2.8
2019-Dec-04 11:50 220 5 8.7 3.0
2019-Dec-04 11:45 220 6 8.7 3.0
2019-Dec-04 11:40 210 5 8.7 3.0
2019-Dec-04 11:35 220 3 8.7 3.0
2019-Dec-04 11:30 250 3 8.7 3.0
2019-Dec-04 11:25 280 3 8.7 3.0
2019-Dec-04 11:20 250 3 8.7 3.0
2019-Dec-04 11:15 8.7 3.0
2019-Dec-04 11:10 8.7 3.0
2019-Dec-04 11:05 8.7 3.0
2019-Dec-04 11:00 8.7 3.0
2019-Dec-04 10:55 220 4 8.7 3.0
2019-Dec-04 10:52 220 5 8.7 2.8
2019-Dec-04 10:50 220 5 8.7 3.0
2019-Dec-04 10:45 210 4 8.7 3.0
2019-Dec-04 10:40 210 4 8.7 3.0
2019-Dec-04 10:35 200 4 8.7 3.0
2019-Dec-04 10:30 210 4 8.7 3.0
2019-Dec-04 10:25 8.7 3.0
2019-Dec-04 10:20 240 3 8.7 3.0
2019-Dec-04 10:15 230 5 8.7 3.0
2019-Dec-04 10:10 220 4 8.7 3.0
2019-Dec-04 10:05 210 4 8.7 3.0
2019-Dec-04 10:00 8.7 3.0
2019-Dec-04 09:55 8.7 3.0
2019-Dec-04 09:52 8.7 3.3
2019-Dec-04 09:50 8.7 3.0
2019-Dec-04 09:45 8.7 3.0
2019-Dec-04 09:40 8.7 3.0
2019-Dec-04 09:35 8.7 4.0
2019-Dec-04 09:30 8.7 3.0
2019-Dec-04 09:25 8.7 4.0
2019-Dec-04 09:20 8.7 3.0
2019-Dec-04 09:15 8.7 4.0
2019-Dec-04 09:10 8.7 4.0
2019-Dec-04 09:05 8.7 4.0
2019-Dec-04 09:00 8.7 4.0
2019-Dec-04 08:55 8.7 4.0
2019-Dec-04 08:52 8.7 3.9
2019-Dec-04 08:50 8.7 4.0
2019-Dec-04 08:45 8.7 4.0
2019-Dec-04 08:40 290 3 8.7 4.0
2019-Dec-04 08:35 330 3 8.7 3.0
2019-Dec-04 08:30 330 4 8.7 3.0 Light rain.
2019-Dec-04 08:25 340 4 8.7 3.0 Light drizzle.
2019-Dec-04 08:20 340 5 8.7 3.0 Light drizzle.
2019-Dec-04 08:15 340 7 8.7 3.0 Light drizzle.
2019-Dec-04 08:10 340 6 8.7 3.0 Light drizzle.
2019-Dec-04 08:05 330 7 8.7 4.0 Light drizzle.
2019-Dec-04 08:00 320 9 8.7 4.0 Light drizzle.
2019-Dec-04 07:55 320 9 8.7 4.0 Light drizzle.
2019-Dec-04 07:52 320 11 8.7 3.9 Light rain.
2019-Dec-04 07:50 320 10 8.7 4.0 Light rain.
2019-Dec-04 07:45 330 9 8.7 4.0 Light rain.
2019-Dec-04 07:40 320 8 8.7 4.0 Light rain.
2019-Dec-04 07:35 320 11 8.7 4.0 Light rain.
2019-Dec-04 07:30 320 11 8.7 4.0 Light rain.
2019-Dec-04 07:25 330 10 8.7 4.0 Light rain.
2019-Dec-04 07:20 320 9 8.7 4.0
2019-Dec-04 07:15 320 11 8.7 4.0
2019-Dec-04 07:10 310 10 8.7 4.0
2019-Dec-04 07:05 320 10 8.7 4.0
2019-Dec-04 07:00 320 8 8.7 4.0
2019-Dec-04 06:55 310 6 8.7 4.0
2019-Dec-04 06:52 300 6 8.7 4.4
2019-Dec-04 06:50 300 6 8.7 4.0
2019-Dec-04 06:45 330 6 8.7 4.0
2019-Dec-04 06:40 310 3 8.7 4.0
2019-Dec-04 06:35 8.7 4.0
2019-Dec-04 06:30 8.7 4.0
2019-Dec-04 06:25 290 3 8.7 4.0
2019-Dec-04 06:20 290 3 8.7 4.0
2019-Dec-04 06:15 280 3 8.7 4.0
2019-Dec-04 06:10 250 3 8.7 4.0
2019-Dec-04 06:05 270 3 8.7 4.0
2019-Dec-04 06:00 250 3 8.7 4.0
2019-Dec-04 05:55 240 3 8.7 4.0
2019-Dec-04 05:52 260 2 8.7 3.9
2019-Dec-04 05:50 8.7 4.0
2019-Dec-04 05:45 270 3 8.7 4.0
2019-Dec-04 05:40 300 3 8.7 4.0
2019-Dec-04 05:35 280 4 8.7 4.0
2019-Dec-04 05:30 270 4 8.7 4.0
2019-Dec-04 05:25 270 5 8.7 4.0
2019-Dec-04 05:20 290 4 8.7 4.0
2019-Dec-04 05:15 270 4 8.7 4.0
2019-Dec-04 05:10 300 4 8.7 4.0
2019-Dec-04 05:05 300 3 8.7 4.0
2019-Dec-04 05:00 320 3 8.7 4.0
2019-Dec-04 04:55 280 4 8.7 4.0
2019-Dec-04 04:52 270 4 8.7 3.9
2019-Dec-04 04:50 280 4 8.7 4.0
2019-Dec-04 04:45 270 5 8.7 4.0
2019-Dec-04 04:40 270 3 8.7 4.0
2019-Dec-04 04:35 320 6 8.7 4.0
2019-Dec-04 04:30 320 4 8.7 4.0
2019-Dec-04 04:25 340 5 8.7 4.0
2019-Dec-04 04:20 320 6 8.7 4.0
2019-Dec-04 04:15 320 7 8.7 4.0
2019-Dec-04 04:10 330 4 8.7 4.0
2019-Dec-04 04:05 340 6 8.7 4.0
2019-Dec-04 04:00 330 4 8.7 4.0
2019-Dec-04 03:55 330 5 8.7 4.0
2019-Dec-04 03:52 320 5 8.7 5.0
2019-Dec-04 03:50 330 5 8.7 5.0
2019-Dec-04 03:45 330 5 8.7 4.0
2019-Dec-04 03:40 320 6 8.7 4.0
2019-Dec-04 03:35 330 5 8.7 5.0
2019-Dec-04 03:30 310 4 8.7 4.0
2019-Dec-04 03:25 350 5 8.7 4.0
2019-Dec-04 03:20 330 4 8.7 4.0
2019-Dec-04 03:15 340 5 8.7 4.0
2019-Dec-04 03:10 340 7 8.7 4.0
2019-Dec-04 03:05 340 4 8.7 4.0
2019-Dec-04 03:00 320 5 8.7 4.0
2019-Dec-04 02:55 350 4 8.7 4.0
2019-Dec-04 02:52 350 4 8.7 4.4
2019-Dec-04 02:50 350 4 8.7 4.0
2019-Dec-04 02:45 360 3 8.7 4.0
2019-Dec-04 02:40 340 4 8.7 4.0
2019-Dec-04 02:35 340 5 8.7 4.0
2019-Dec-04 02:30 360 4 8.7 4.0
2019-Dec-04 02:25 020 4 8.7 4.0
2019-Dec-04 02:20 020 3 8.7 4.0
2019-Dec-04 02:15 360 3 8.7 4.0
2019-Dec-04 02:10 360 5 8.7 4.0
2019-Dec-04 02:05 350 5 8.7 5.0
2019-Dec-04 02:00 340 7 8.7 4.0
2019-Dec-04 01:55 340 6 8.7 4.0
2019-Dec-04 01:52 350 5 8.7 4.4
2019-Dec-04 01:50 350 6 8.7 4.0
2019-Dec-04 01:45 340 7 8.7 4.0
2019-Dec-04 01:40 340 9 8.7 4.0
2019-Dec-04 01:35 320 7 8.7 4.0
2019-Dec-04 01:30 340 8 8.7 5.0
2019-Dec-04 01:25 340 9 8.7 5.0
2019-Dec-04 01:20 330 7 8.7 5.0
2019-Dec-04 01:15 330 7 8.7 5.0
2019-Dec-04 01:10 330 6 8.7 5.0
2019-Dec-04 01:05 330 8 8.7 4.0
2019-Dec-04 01:00 340 8 8.7 4.0
2019-Dec-04 00:55 330 9 8.7 5.0
2019-Dec-04 00:52 330 9 8.7 5.0
2019-Dec-04 00:50 340 9 8.7 5.0
2019-Dec-04 00:45 340 9 8.7 5.0
2019-Dec-04 00:40 330 13 8.7 5.0
2019-Dec-04 00:35 340 12 8.7 5.0
2019-Dec-04 00:30 330 11 8.7 5.0
2019-Dec-04 00:25 320 7 8.7 5.0
2019-Dec-04 00:20 340 7 8.7 6.0
2019-Dec-04 00:15 320 8 8.7 5.0
2019-Dec-04 00:10 320 8 8.7 5.0
2019-Dec-04 00:05 320 8 8.7 6.0
2019-Dec-04 00:00 320 9 8.7 6.0